When you browse on this site, cookies collect data to enhance your experience and personalize the content and advertising you see.
Visit our Privacy Policy to learn more. By continuing to use the site, you agree to this use of cookies and data.
  • In Schweiz
  • Länderverzeichnis
  • Für 7 Tage
  • Wassertemperatur
  • Satellitenkarten
  • Wetterkarte
  • Widgets
  • user-avatar
    Anmelden

    Stündliche Wetter Bern

    Heute, 25 April, Donnerstag

    Zeit Temperatur Niederschläge Wind Luftdruck Luftfeuchtigkeit
    00:00 +7°C° 0 mm 0 m/S 709 mmHg 95%
    01:00 +8°C° 0 mm 1 m/S 709 mmHg 94%
    02:00 +8°C° 0 mm 1 m/S 709 mmHg 92%
    03:00 +8°C° 0 mm 1 m/S 709 mmHg 91%
    04:00 +8°C° 0 mm 1 m/S 710 mmHg 89%
    05:00 +9°C° 0 mm 1 m/S 710 mmHg 87%
    06:00 +10°C° 0 mm 1 m/S 710 mmHg 85%
    07:00 +13°C° 0 mm 1 m/S 710 mmHg 73%
    08:00 +16°C° 0 mm 1 m/S 710 mmHg 61%
    09:00 +20°C° 0 mm 1 m/S 711 mmHg 49%
    10:00 +22°C° 0 mm 1 m/S 711 mmHg 43%
    11:00 +23°C° 0 mm 1 m/S 710 mmHg 37%
    12:00 +25°C° 0 mm 1 m/S 710 mmHg 32%
    13:00 +24°C° 0 mm 2 m/S 710 mmHg 32%
    14:00 +24°C° 0 mm 2 m/S 710 mmHg 33%
    15:00 +24°C° 0 mm 2 m/S 710 mmHg 33%
    16:00 +20°C° 0 mm 2 m/S 710 mmHg 45%
    17:00 +19°C° 0 mm 1 m/S 710 mmHg 57%
    18:00 +16°C° 0 mm 1 m/S 709 mmHg 69%
    19:00 +14°C° 0.1 mm 1 m/S 710 mmHg 76%
    20:00 +13°C° 0.1 mm 1 m/S 710 mmHg 83%
    21:00 +11°C° 0.1 mm 1 m/S 710 mmHg 90%
    22:00 +10°C° 1.8 mm 2 m/S 710 mmHg 92%
    23:00 +9°C° 1.8 mm 2 m/S 710 mmHg 94%

    Morgen, 26 April, Freitag

    Zeit Temperatur Niederschläge Wind Luftdruck Luftfeuchtigkeit
    00:00 +9°C° 1.8 mm 2 m/S 710 mmHg 96%
    01:00 +8°C° 3 mm 2 m/S 710 mmHg 97%
    02:00 +7°C° 3 mm 2 m/S 710 mmHg 97%
    03:00 +6°C° 3 mm 2 m/S 710 mmHg 97%
    04:00 +7°C° 3 mm 1 m/S 710 mmHg 97%
    05:00 +7°C° 3 mm 1 m/S 711 mmHg 97%
    06:00 +7°C° 3 mm 1 m/S 711 mmHg 97%
    07:00 +7°C° 2.1 mm 1 m/S 712 mmHg 96%
    08:00 +7°C° 2.1 mm 1 m/S 713 mmHg 95%
    09:00 +7°C° 2.1 mm 1 m/S 714 mmHg 94%
    10:00 +8°C° 1 mm 1 m/S 714 mmHg 92%
    11:00 +8°C° 1 mm 1 m/S 714 mmHg 91%
    12:00 +9°C° 1 mm 1 m/S 715 mmHg 89%
    13:00 +9°C° 0.3 mm 1 m/S 715 mmHg 88%
    14:00 +9°C° 0.3 mm 1 m/S 715 mmHg 87%
    15:00 +9°C° 0.3 mm 1 m/S 715 mmHg 86%
    16:00 +9°C° 0 mm 1 m/S 715 mmHg 87%
    17:00 +8°C° 0 mm 1 m/S 715 mmHg 88%
    18:00 +8°C° 0 mm 1 m/S 715 mmHg 88%
    19:00 +7°C° 0 mm 1 m/S 716 mmHg 88%
    20:00 +6°C° 0 mm 1 m/S 716 mmHg 88%
    21:00 +4°C° 0 mm 2 m/S 717 mmHg 88%
    22:00 +4°C° 0 mm 2 m/S 717 mmHg 87%
    23:00 +3°C° 0 mm 2 m/S 717 mmHg 86%

    übermorgen, 27 April, Samstag

    Zeit Temperatur Niederschläge Wind Luftdruck Luftfeuchtigkeit
    00:00 +3°C° 0 mm 2 m/S 717 mmHg 85%
    01:00 +3°C° 0 mm 2 m/S 717 mmHg 84%
    02:00 +3°C° 0 mm 2 m/S 717 mmHg 83%
    03:00 +3°C° 0 mm 2 m/S 717 mmHg 83%
    04:00 +4°C° 0.2 mm 2 m/S 717 mmHg 83%
    05:00 +4°C° 0.2 mm 2 m/S 717 mmHg 83%
    06:00 +5°C° 0.2 mm 2 m/S 717 mmHg 84%
    07:00 +7°C° 0.1 mm 3 m/S 717 mmHg 80%
    08:00 +7°C° 0.1 mm 4 m/S 717 mmHg 76%
    09:00 +9°C° 0.1 mm 5 m/S 717 mmHg 71%
    10:00 +10°C° 0 mm 5 m/S 717 mmHg 68%
    11:00 +12°C° 0 mm 5 m/S 717 mmHg 65%
    12:00 +11°C° 0 mm 6 m/S 716 mmHg 61%
    13:00 +11°C° 0.4 mm 6 m/S 716 mmHg 67%
    14:00 +10°C° 0.4 mm 6 m/S 716 mmHg 72%
    15:00 +9°C° 0.4 mm 6 m/S 715 mmHg 78%
    16:00 +8°C° 0.5 mm 5 m/S 715 mmHg 82%
    17:00 +7°C° 0.5 mm 4 m/S 716 mmHg 85%
    18:00 +5°C° 0.5 mm 3 m/S 716 mmHg 89%
    19:00 +6°C° 0.4 mm 2 m/S 716 mmHg 90%
    20:00 +5°C° 0.4 mm 2 m/S 717 mmHg 91%
    21:00 +4°C° 0.4 mm 2 m/S 717 mmHg 92%
    22:00 +4°C° 0.3 mm 2 m/S 717 mmHg 93%
    23:00 +4°C° 0.3 mm 2 m/S 717 mmHg 93%

    28 April, Sonntag

    Zeit Temperatur Niederschläge Wind Luftdruck Luftfeuchtigkeit
    00:00 +4°C° 0.3 mm 2 m/S 717 mmHg 93%
    01:00 +3°C° 0.1 mm 2 m/S 717 mmHg 93%
    02:00 +3°C° 0.1 mm 2 m/S 717 mmHg 93%
    03:00 +3°C° 0.1 mm 2 m/S 717 mmHg 94%
    04:00 +3°C° 0.1 mm 2 m/S 717 mmHg 91%
    05:00 +2°C° 0.1 mm 3 m/S 717 mmHg 89%
    06:00 +3°C° 0.1 mm 3 m/S 717 mmHg 86%
    07:00 +3°C° 0.5 mm 4 m/S 717 mmHg 84%
    08:00 +3°C° 0.5 mm 4 m/S 716 mmHg 82%
    09:00 +4°C° 0.5 mm 4 m/S 716 mmHg 80%
    10:00 +4°C° 0.3 mm 4 m/S 716 mmHg 79%
    11:00 +5°C° 0.3 mm 4 m/S 716 mmHg 78%
    12:00 +6°C° 0.3 mm 4 m/S 716 mmHg 77%
    13:00 +7°C° 0.3 mm 3 m/S 716 mmHg 78%
    14:00 +7°C° 0.3 mm 3 m/S 716 mmHg 79%
    15:00 +7°C° 0.3 mm 3 m/S 715 mmHg 81%
    16:00 +6°C° 0.2 mm 2 m/S 716 mmHg 84%
    17:00 +6°C° 0.2 mm 2 m/S 716 mmHg 87%
    18:00 +6°C° 0.2 mm 1 m/S 716 mmHg 90%
    19:00 +5°C° 0.1 mm 2 m/S 716 mmHg 91%
    20:00 +4°C° 0.1 mm 2 m/S 716 mmHg 92%
    21:00 +3°C° 0.1 mm 2 m/S 717 mmHg 93%
    22:00 +4°C° 0.1 mm 1 m/S 717 mmHg 92%
    23:00 +4°C° 0.1 mm 1 m/S 717 mmHg 90%

    29 April, Montag

    Zeit Temperatur Niederschläge Wind Luftdruck Luftfeuchtigkeit
    00:00 +4°C° 0.1 mm 1 m/S 717 mmHg 89%
    01:00 +4°C° 0 mm 1 m/S 716 mmHg 89%
    02:00 +3°C° 0 mm 1 m/S 716 mmHg 89%
    03:00 +3°C° 0 mm 1 m/S 716 mmHg 90%
    04:00 +4°C° 0 mm 1 m/S 716 mmHg 88%
    05:00 +3°C° 0 mm 0 m/S 716 mmHg 86%
    06:00 +4°C° 0 mm 0 m/S 717 mmHg 85%
    07:00 +6°C° 0 mm 1 m/S 716 mmHg 84%
    08:00 +7°C° 0 mm 1 m/S 716 mmHg 83%
    09:00 +7°C° 0 mm 2 m/S 716 mmHg 82%
    10:00 +7°C° 0 mm 2 m/S 716 mmHg 80%
    11:00 +8°C° 0 mm 2 m/S 716 mmHg 78%
    12:00 +9°C° 0 mm 3 m/S 716 mmHg 77%
    13:00 +9°C° 0 mm 3 m/S 716 mmHg 76%
    14:00 +10°C° 0 mm 2 m/S 716 mmHg 76%
    15:00 +10°C° 0 mm 2 m/S 715 mmHg 75%
    16:00 +10°C° 0 mm 2 m/S 715 mmHg 80%
    17:00 +10°C° 0 mm 1 m/S 715 mmHg 86%
    18:00 +9°C° 0 mm 1 m/S 715 mmHg 91%
    19:00 +8°C° 0 mm 1 m/S 716 mmHg 92%
    20:00 +7°C° 0 mm 1 m/S 716 mmHg 94%
    21:00 +6°C° 0 mm 1 m/S 716 mmHg 95%
    22:00 +6°C° 0 mm 1 m/S 716 mmHg 94%
    23:00 +5°C° 0 mm 1 m/S 716 mmHg 94%

    30 April, Dienstag

    Zeit Temperatur Niederschläge Wind Luftdruck Luftfeuchtigkeit
    00:00 +5°C° 0 mm 1 m/S 716 mmHg 94%
    01:00 +4°C° 0 mm 1 m/S 716 mmHg 93%
    02:00 +4°C° 0 mm 1 m/S 715 mmHg 93%
    03:00 +4°C° 0 mm 1 m/S 715 mmHg 93%
    04:00 +4°C° 0 mm 0 m/S 715 mmHg 90%
    05:00 +5°C° 0 mm 0 m/S 715 mmHg 88%
    06:00 +6°C° 0 mm 0 m/S 715 mmHg 85%
    07:00 +9°C° 0 mm 1 m/S 715 mmHg 78%
    08:00 +11°C° 0 mm 1 m/S 715 mmHg 71%
    09:00 +14°C° 0 mm 2 m/S 715 mmHg 64%
    10:00 +14°C° 0 mm 2 m/S 715 mmHg 61%
    11:00 +15°C° 0 mm 2 m/S 714 mmHg 57%
    12:00 +16°C° 0 mm 2 m/S 714 mmHg 54%
    13:00 +16°C° 0.2 mm 2 m/S 714 mmHg 59%
    14:00 +15°C° 0.2 mm 2 m/S 714 mmHg 64%
    15:00 +15°C° 0.2 mm 2 m/S 713 mmHg 69%
    16:00 +13°C° 0.2 mm 2 m/S 713 mmHg 76%
    17:00 +12°C° 0.2 mm 1 m/S 713 mmHg 84%
    18:00 +11°C° 0.2 mm 1 m/S 713 mmHg 91%
    19:00 +10°C° 0 mm 1 m/S 713 mmHg 92%
    20:00 +8°C° 0 mm 1 m/S 714 mmHg 93%
    21:00 +7°C° 0 mm 1 m/S 714 mmHg 95%
    22:00 +7°C° 0.1 mm 1 m/S 714 mmHg 94%
    23:00 +7°C° 0.1 mm 1 m/S 714 mmHg 94%
    Mehr zeigen